Miscellaneous Local Product
Issued by NWS Hastings, NE

Home | Current Version | Previous Version | Text Only | Print | Product List | Glossary Off
Versions: 1 2 3 4 5 6 7 8 9 10 11 12 13 14 15 16 17 18 19 20 21 22 23 24 25 26 27 28 29 30 31 32 33 34 35 36 37 38 39 40 41 42 43 44 45 46 47 48 49 50

000
AXUS43 KGID 312202
MISGRI

GID CWA HOURLY WEATHER ROUNDUP
NATIONAL WEATHER SERVICE HASTINGS NE
500 PM CDT TUE MAR 31 2015

NOTE: "FAIR" INDICATES FEW OR NO CLOUDS BELOW 12,000 FEET WITH NO
SIGNIFICANT WEATHER AND/OR OBSTRUCTIONS TO VISIBILITY.

...SOUTH CENTRAL NEBRASKA...

CITY           SKY/WX    TMP DP  RH WIND       PRES   REMARKS
GRAND ISLAND   SUNNY     79  26  14 S9        29.87F
HASTINGS       SUNNY     78  29  16 S10G18    29.87F
KEARNEY        SUNNY     79  28  15 S15G23    29.87F
ORD            SUNNY     78  26  14 S12       29.83F
YORK           SUNNY     77  30  18 SW9       29.89F
AURORA         SUNNY     78  29  16 SW6       29.87F
LEXINGTON      SUNNY     79  26  14 S18       29.87F
HOLDREGE       SUNNY     77  24  14 S14G21    29.89F
HEBRON         SUNNY     78  21  12 S7        29.90F

...NEBRASKA PANHANDLE...

CITY           SKY/WX    TMP DP  RH WIND       PRES   REMARKS
CHADRON        SUNNY     79  21  11 SW13G21   29.76F
ALLIANCE       SUNNY     78  31  17 W14G26    29.81F
SCOTTSBLUFF    SUNNY     81  20  10 W10G23    29.80F
SIDNEY         SUNNY     77  24  14 S9G18     29.86F

...WESTERN AND NORTH CENTRAL NEBRASKA...

CITY           SKY/WX    TMP DP  RH WIND       PRES   REMARKS
VALENTINE      MOSUNNY   79  21  11 SW17      29.78F
AINSWORTH      MOSUNNY   78  25  13 SW14G21   29.80F
ONEILL         SUNNY     79  30  16 SW13G22   29.83F
BROKEN BOW     SUNNY     79  30  16 S15G26    29.84F
IMPERIAL         N/A     79  14   8 CALM      29.84F
NORTH PLATTE   SUNNY     80  25  13 S14G22    29.83F
MCCOOK         SUNNY     83  21  10 S10G18    29.84F

...EASTERN NEBRASKA...

CITY           SKY/WX    TMP DP  RH WIND       PRES   REMARKS
NORFOLK        SUNNY     78  29  16 SW13G18   29.84F
SO SIOUX CITY  SUNNY     78  27  15 SW8       29.85F
TEKAMAH        SUNNY     80  29  15 S13       29.87F
COLUMBUS       SUNNY     77  30  18 SW8G18    29.89F
ALBION         SUNNY     78  26  14 SW8       29.86F
OMAHA EPPLEY   SUNNY     76  29  17 CALM      29.89F
OFFUTT AFB     SUNNY     76  29  17 S2        29.89F
MILLARD        SUNNY     77  32  19 SW8       29.90F
LINCOLN        SUNNY     78  32  18 S10       29.89F
NEBRASKA CITY  SUNNY     75  21  13 S5        29.91F
BEATRICE       SUNNY     76  33  20 SE5       29.90F
FALLS CITY     SUNNY     77  28  16 VRB6      29.90F

...NORTHERN KANSAS...

CITY           SKY/WX    TMP DP  RH WIND       PRES   REMARKS
GOODLAND       SUNNY     80  15   8 S10       29.88F
HILL CITY      SUNNY     81  25  12 S14G22    29.88F
NORTON         CLEAR     81  12   7 S14G22    29.87F
PHILLIPSBURG   SUNNY     82  25  12 S15G22    29.88F
SMITH CENTER   SUNNY     79  28  15 S15       29.89F
BELOIT         SUNNY     81  27  13 SE9       29.87F
HAYS           SUNNY     81  30  16 SE13G21   29.89F
RUSSELL        SUNNY     80  29  15 S9G22     29.88F
CONCORDIA      SUNNY     79  29  16 S9G16     29.89F
SALINA         SUNNY     81  31  16 E14       29.89F
TOPEKA         SUNNY     78  32  18 E7        29.91F



USA.gov is the U.S. government's official web portal to all federal, state and local government web resources and services.